Algosea — CFN4229 — position and weather

sailwx.info

Track history (hours):
 
Tides and Currents Weather Stations Pressure Air Temp Water Temp Dewpoint Dewpoint Depression Visibility Wind Speed Wind Dir Waves Ship Positions

Algosea

Last reported at 2014-Oct-27 22:27 UTC. Time now 2014-Oct-30 14:27 UTC.
Position N 42°17' W 080°49'.

Length 144 m; draft 7.1 m.

Type: Ship (hazmat cat C). MMSI: 316006868.

Date/timePositionNaut miles runAvg speedWind from/ knotsBaromVisibWave heightAir tempDewpointWater temp
2014-Oct-27 22:27N 42°17' W 080°49'1112.4
2014-Oct-27 21:33N 42°21' W 080°35'1212.4
2014-Oct-27 20:33N 42°26' W 080°19'1212.3
2014-Oct-27 19:33N 42°30' W 080°04'1010.0
2014-Oct-27 18:33N 42°40' W 080°04'8 7.7
2014-Oct-27 17:32N 42°48' W 080°03'0 0.0
2014-Oct-27 16:28N 42°48' W 080°03'  
2014-Oct-25 10:33N 42°48' W 080°03'0 0.4
2014-Oct-25 09:33N 42°47' W 080°02'0 0.0
2014-Oct-23 20:33N 42°48' W 080°03'0 0.0
2014-Oct-23 19:32N 42°48' W 080°03'7 6.7
2014-Oct-23 18:33N 42°41' W 080°05'1211.3
2014-Oct-23 17:31N 42°30' W 080°02'  
2014-Oct-21 02:13N 42°26' W 080°18'811.6
2014-Oct-21 01:33N 42°29' W 080°08'9 8.7
2014-Oct-21 00:33N 42°36' W 080°02'9 8.2
2014-Oct-20 23:28N 42°44' W 080°08'0 0.0
2014-Oct-20 22:28N 42°44' W 080°08'0 0.0
2014-Oct-20 21:28N 42°44' W 080°08'0 0.0
2014-Oct-20 20:31N 42°44' W 080°08'0 0.0
2014-Oct-20 19:28N 42°44' W 080°08'0 0.0
2014-Oct-20 18:28N 42°44' W 080°08'0 0.0
2014-Oct-20 17:28N 42°44' W 080°08'0 0.0
2014-Oct-20 16:31N 42°44' W 080°08'0 0.0
2014-Oct-20 15:28N 42°44' W 080°08'0 0.0
2014-Oct-20 14:28N 42°44' W 080°08'0 0.0
2014-Oct-20 13:28N 42°44' W 080°08'0 0.0
2014-Oct-20 12:31N 42°44' W 080°08'0 0.0
2014-Oct-20 11:28N 42°44' W 080°08'0 0.0
2014-Oct-20 10:28N 42°44' W 080°08'0 0.0
2014-Oct-20 09:28N 42°44' W 080°07'0 0.0
2014-Oct-20 08:31N 42°44' W 080°07'0 0.1
2014-Oct-20 07:28N 42°44' W 080°07'0 0.0
2014-Oct-20 06:28N 42°44' W 080°07'0 0.0
2014-Oct-20 05:31N 42°44' W 080°07'0 0.0
2014-Oct-20 04:31N 42°44' W 080°07'0 0.0
2014-Oct-20 03:31N 42°44' W 080°07'0 0.0
2014-Oct-20 02:28N 42°44' W 080°07'0 0.0
2014-Oct-20 01:31N 42°44' W 080°07'0 0.0
2014-Oct-20 00:28N 42°44' W 080°07'0 0.0
2014-Oct-19 23:28N 42°44' W 080°07'0 0.0
2014-Oct-19 22:28N 42°44' W 080°07'0 0.0
2014-Oct-19 21:28N 42°44' W 080°07'0 0.0
2014-Oct-19 20:28N 42°44' W 080°07'0 0.0
2014-Oct-19 19:28N 42°44' W 080°07'0 0.0
2014-Oct-19 18:28N 42°44' W 080°07'0 0.0
2014-Oct-19 17:28N 42°44' W 080°07'0 0.0
2014-Oct-19 16:28N 42°44' W 080°07'0 0.0
2014-Oct-19 15:31N 42°44' W 080°08'0 0.0
2014-Oct-19 14:25N 42°44' W 080°08'0 0.0
2014-Oct-19 13:31N 42°44' W 080°08'0 0.0
2014-Oct-19 12:31N 42°44' W 080°08'0 0.0
2014-Oct-19 11:31N 42°44' W 080°08'0 0.0
2014-Oct-19 10:25N 42°44' W 080°08'0 0.0
2014-Oct-19 09:31N 42°44' W 080°08'0 0.0
2014-Oct-19 08:31N 42°44' W 080°08'0 0.0
2014-Oct-19 07:31N 42°44' W 080°08'0 0.0
2014-Oct-19 06:31N 42°44' W 080°08'0 0.0
2014-Oct-19 05:31N 42°44' W 080°08'0 0.0
2014-Oct-19 04:31N 42°44' W 080°08'0 0.0
2014-Oct-19 03:28N 42°44' W 080°08'0 0.0
2014-Oct-19 02:28N 42°44' W 080°08'0 0.0
2014-Oct-19 01:28N 42°44' W 080°08'0 0.0
2014-Oct-19 00:28N 42°44' W 080°08'0 0.0
2014-Oct-18 23:31N 42°44' W 080°08'0 0.0
2014-Oct-18 22:28N 42°44' W 080°08'0 0.0
2014-Oct-18 21:28N 42°44' W 080°08'0 0.0
2014-Oct-18 20:28N 42°44' W 080°08'0 0.0
2014-Oct-18 19:28N 42°44' W 080°08'0 0.0
2014-Oct-18 18:28N 42°44' W 080°07'0 0.0
2014-Oct-18 17:31N 42°44' W 080°07'0 0.0
2014-Oct-18 16:31N 42°44' W 080°07'0 0.0
2014-Oct-18 15:31N 42°44' W 080°07'0 0.0
2014-Oct-18 14:25N 42°44' W 080°07'0 0.0
2014-Oct-18 13:31N 42°44' W 080°07'0 0.0
2014-Oct-18 12:31N 42°44' W 080°07'0 0.0
2014-Oct-18 11:31N 42°44' W 080°07'0 0.0
2014-Oct-18 10:31N 42°44' W 080°07'0 0.0
2014-Oct-18 09:31N 42°44' W 080°07'0 0.0
2014-Oct-18 08:31N 42°44' W 080°07'0 0.0
2014-Oct-18 07:31N 42°44' W 080°07'0 0.0
2014-Oct-18 06:28N 42°44' W 080°07'0 0.0
2014-Oct-18 05:22N 42°44' W 080°07'0 0.0
2014-Oct-18 04:28N 42°44' W 080°07'0 0.0
2014-Oct-18 03:28N 42°44' W 080°07'0 0.0
2014-Oct-18 02:28N 42°44' W 080°07'0 0.0
2014-Oct-18 01:28N 42°44' W 080°07'0 0.0
2014-Oct-18 00:28N 42°44' W 080°07'0 0.0
2014-Oct-17 23:28N 42°44' W 080°07'0 0.0
2014-Oct-17 22:28N 42°44' W 080°07'  
Track history (hours):
 
Tides and Currents Weather Stations Pressure Air Temp Water Temp Dewpoint Dewpoint Depression Visibility Wind Speed Wind Dir Waves Ship Positions

Algosea

Last reported at 2014-Oct-27 22:27 UTC. Time now 2014-Oct-30 14:27 UTC.
Position N 42°17' W 080°49'.

Length 144 m; draft 7.1 m.

Type: Ship (hazmat cat C). MMSI: 316006868.

Date/timePositionNaut miles runAvg speedWind from/ knotsBaromVisibWave heightAir tempDewpointWater temp
2014-Oct-27 22:27N 42°17' W 080°49'1112.4
2014-Oct-27 21:33N 42°21' W 080°35'1212.4
2014-Oct-27 20:33N 42°26' W 080°19'1212.3
2014-Oct-27 19:33N 42°30' W 080°04'1010.0
2014-Oct-27 18:33N 42°40' W 080°04'8 7.7
2014-Oct-27 17:32N 42°48' W 080°03'0 0.0
2014-Oct-27 16:28N 42°48' W 080°03'  
2014-Oct-25 10:33N 42°48' W 080°03'0 0.4
2014-Oct-25 09:33N 42°47' W 080°02'0 0.0
2014-Oct-23 20:33N 42°48' W 080°03'0 0.0
2014-Oct-23 19:32N 42°48' W 080°03'7 6.7
2014-Oct-23 18:33N 42°41' W 080°05'1211.3
2014-Oct-23 17:31N 42°30' W 080°02'  
2014-Oct-21 02:13N 42°26' W 080°18'811.6
2014-Oct-21 01:33N 42°29' W 080°08'9 8.7
2014-Oct-21 00:33N 42°36' W 080°02'9 8.2
2014-Oct-20 23:28N 42°44' W 080°08'0 0.0
2014-Oct-20 22:28N 42°44' W 080°08'0 0.0
2014-Oct-20 21:28N 42°44' W 080°08'0 0.0
2014-Oct-20 20:31N 42°44' W 080°08'0 0.0
2014-Oct-20 19:28N 42°44' W 080°08'0 0.0
2014-Oct-20 18:28N 42°44' W 080°08'0 0.0
2014-Oct-20 17:28N 42°44' W 080°08'0 0.0
2014-Oct-20 16:31N 42°44' W 080°08'0 0.0
2014-Oct-20 15:28N 42°44' W 080°08'0 0.0
2014-Oct-20 14:28N 42°44' W 080°08'0 0.0
2014-Oct-20 13:28N 42°44' W 080°08'0 0.0
2014-Oct-20 12:31N 42°44' W 080°08'0 0.0
2014-Oct-20 11:28N 42°44' W 080°08'0 0.0
2014-Oct-20 10:28N 42°44' W 080°08'0 0.0
2014-Oct-20 09:28N 42°44' W 080°07'0 0.0
2014-Oct-20 08:31N 42°44' W 080°07'0 0.1
2014-Oct-20 07:28N 42°44' W 080°07'0 0.0
2014-Oct-20 06:28N 42°44' W 080°07'0 0.0
2014-Oct-20 05:31N 42°44' W 080°07'0 0.0
2014-Oct-20 04:31N 42°44' W 080°07'0 0.0
2014-Oct-20 03:31N 42°44' W 080°07'0 0.0
2014-Oct-20 02:28N 42°44' W 080°07'0 0.0
2014-Oct-20 01:31N 42°44' W 080°07'0 0.0
2014-Oct-20 00:28N 42°44' W 080°07'0 0.0
2014-Oct-19 23:28N 42°44' W 080°07'0 0.0
2014-Oct-19 22:28N 42°44' W 080°07'0 0.0
2014-Oct-19 21:28N 42°44' W 080°07'0 0.0
2014-Oct-19 20:28N 42°44' W 080°07'0 0.0
2014-Oct-19 19:28N 42°44' W 080°07'0 0.0
2014-Oct-19 18:28N 42°44' W 080°07'0 0.0
2014-Oct-19 17:28N 42°44' W 080°07'0 0.0
2014-Oct-19 16:28N 42°44' W 080°07'0 0.0
2014-Oct-19 15:31N 42°44' W 080°08'0 0.0
2014-Oct-19 14:25N 42°44' W 080°08'0 0.0
2014-Oct-19 13:31N 42°44' W 080°08'0 0.0
2014-Oct-19 12:31N 42°44' W 080°08'0 0.0
2014-Oct-19 11:31N 42°44' W 080°08'0 0.0
2014-Oct-19 10:25N 42°44' W 080°08'0 0.0
2014-Oct-19 09:31N 42°44' W 080°08'0 0.0
2014-Oct-19 08:31N 42°44' W 080°08'0 0.0
2014-Oct-19 07:31N 42°44' W 080°08'0 0.0
2014-Oct-19 06:31N 42°44' W 080°08'0 0.0
2014-Oct-19 05:31N 42°44' W 080°08'0 0.0
2014-Oct-19 04:31N 42°44' W 080°08'0 0.0
2014-Oct-19 03:28N 42°44' W 080°08'0 0.0
2014-Oct-19 02:28N 42°44' W 080°08'0 0.0
2014-Oct-19 01:28N 42°44' W 080°08'0 0.0
2014-Oct-19 00:28N 42°44' W 080°08'0 0.0
2014-Oct-18 23:31N 42°44' W 080°08'0 0.0
2014-Oct-18 22:28N 42°44' W 080°08'0 0.0
2014-Oct-18 21:28N 42°44' W 080°08'0 0.0
2014-Oct-18 20:28N 42°44' W 080°08'0 0.0
2014-Oct-18 19:28N 42°44' W 080°08'0 0.0
2014-Oct-18 18:28N 42°44' W 080°07'0 0.0
2014-Oct-18 17:31N 42°44' W 080°07'0 0.0
2014-Oct-18 16:31N 42°44' W 080°07'0 0.0
2014-Oct-18 15:31N 42°44' W 080°07'0 0.0
2014-Oct-18 14:25N 42°44' W 080°07'0 0.0
2014-Oct-18 13:31N 42°44' W 080°07'0 0.0
2014-Oct-18 12:31N 42°44' W 080°07'0 0.0
2014-Oct-18 11:31N 42°44' W 080°07'0 0.0
2014-Oct-18 10:31N 42°44' W 080°07'0 0.0
2014-Oct-18 09:31N 42°44' W 080°07'0 0.0
2014-Oct-18 08:31N 42°44' W 080°07'0 0.0
2014-Oct-18 07:31N 42°44' W 080°07'0 0.0
2014-Oct-18 06:28N 42°44' W 080°07'0 0.0
2014-Oct-18 05:22N 42°44' W 080°07'0 0.0
2014-Oct-18 04:28N 42°44' W 080°07'0 0.0
2014-Oct-18 03:28N 42°44' W 080°07'0 0.0
2014-Oct-18 02:28N 42°44' W 080°07'0 0.0
2014-Oct-18 01:28N 42°44' W 080°07'0 0.0
2014-Oct-18 00:28N 42°44' W 080°07'0 0.0
2014-Oct-17 23:28N 42°44' W 080°07'0 0.0
2014-Oct-17 22:28N 42°44' W 080°07'  

Dump ship's entire track history